Time,TemperatureF,DewpointF,PressureIn,WindDirection,WindDirectionDegrees,WindSpeedMPH,WindSpeedGustMPH,Humidity,HourlyPrecipIn,Conditions,Clouds,dailyrainin,SoftwareType,DateUTC
2013-05-07 00:04:00,61.3,48.6,30.00,WSW,248,0.0,1.0,63,0.00,,---,0.00,VWS V14.01,2013-05-07 05:04:00,
2013-05-07 00:09:00,61.4,48.7,30.00,WSW,248,1.0,1.0,63,0.00,,---,0.00,VWS V14.01,2013-05-07 05:09:00,
2013-05-07 00:14:00,61.6,48.9,30.00,NNE,14,1.0,2.0,63,0.00,,---,0.00,VWS V14.01,2013-05-07 05:14:00,
2013-05-07 00:19:00,61.4,48.7,29.99,NE,46,1.0,2.0,63,0.00,,---,0.00,VWS V14.01,2013-05-07 05:19:00,
2013-05-07 00:24:00,60.9,48.2,30.00,NE,46,0.0,2.0,63,0.00,,---,0.00,VWS V14.01,2013-05-07 05:24:00,
2013-05-07 00:29:00,60.7,48.5,30.00,NE,46,0.0,2.0,64,0.00,,---,0.00,VWS V14.01,2013-05-07 05:29:00,
2013-05-07 00:34:00,60.3,48.5,30.00,NE,46,0.0,0.0,65,0.00,,---,0.00,VWS V14.01,2013-05-07 05:34:00,
2013-05-07 00:39:00,60.5,48.7,30.00,NE,46,1.0,1.0,65,0.00,,---,0.00,VWS V14.01,2013-05-07 05:39:00,
2013-05-07 00:44:00,60.5,48.7,30.00,NE,39,1.0,2.0,65,0.00,,---,0.00,VWS V14.01,2013-05-07 05:44:00,
2013-05-07 00:50:00,60.1,48.7,30.00,North,3,1.0,2.0,66,0.00,,---,0.00,VWS V14.01,2013-05-07 05:50:00,
2013-05-07 00:55:00,59.9,48.9,30.00,North,349,1.0,2.0,67,0.00,,---,0.00,VWS V14.01,2013-05-07 05:55:00,
2013-05-07 01:00:00,59.5,48.5,30.01,NNW,336,0.0,2.0,67,0.00,,---,0.00,VWS V14.01,2013-05-07 06:00:00,
2013-05-07 01:05:00,59.3,48.8,30.01,NNW,335,0.0,1.0,68,0.00,,---,0.00,VWS V14.01,2013-05-07 06:05:00,
2013-05-07 01:10:00,59.3,49.1,30.01,NNW,335,1.0,1.0,69,0.00,,---,0.00,VWS V14.01,2013-05-07 06:10:00,
2013-05-07 01:15:00,59.3,49.5,30.01,WNW,302,1.0,1.0,70,0.00,,---,0.00,VWS V14.01,2013-05-07 06:15:00,
2013-05-07 01:20:00,59.1,50.5,30.01,West,278,1.0,1.0,73,0.00,,---,0.00,VWS V14.01,2013-05-07 06:20:00,
2013-05-07 01:25:00,59.1,50.5,30.01,West,278,0.0,1.0,73,0.00,,---,0.00,VWS V14.01,2013-05-07 06:25:00,
2013-05-07 01:30:00,59.0,50.7,30.01,West,278,0.0,1.0,74,0.00,,---,0.00,VWS V14.01,2013-05-07 06:30:00,
2013-05-07 01:36:00,59.1,50.1,30.01,West,280,1.0,1.0,72,0.00,,---,0.00,VWS V14.01,2013-05-07 06:36:00,
2013-05-07 01:41:00,59.4,49.6,30.01,West,279,1.0,1.0,70,0.00,,---,0.00,VWS V14.01,2013-05-07 06:41:00,
2013-05-07 01:46:00,59.6,49.8,30.01,ENE,64,2.0,2.0,70,0.00,,---,0.00,VWS V14.01,2013-05-07 06:46:00,
2013-05-07 01:51:00,59.6,49.4,30.00,ENE,69,1.0,2.0,69,0.00,,---,0.00,VWS V14.01,2013-05-07 06:51:00,
2013-05-07 01:56:00,59.4,49.2,30.00,ENE,76,3.0,4.0,69,0.00,,---,0.00,VWS V14.01,2013-05-07 06:56:00,
2013-05-07 02:01:00,59.3,49.1,30.00,ENE,72,2.0,3.0,69,0.00,,---,0.00,VWS V14.01,2013-05-07 07:01:00,
2013-05-07 02:06:00,59.4,49.6,29.99,ENE,76,2.0,4.0,70,0.00,,---,0.00,VWS V14.01,2013-05-07 07:06:00,
2013-05-07 02:11:00,59.5,49.3,29.99,East,83,2.0,4.0,69,0.00,,---,0.00,VWS V14.01,2013-05-07 07:11:00,
2013-05-07 02:16:00,59.6,49.4,29.99,East,82,1.0,4.0,69,0.00,,---,0.00,VWS V14.01,2013-05-07 07:16:00,
2013-05-07 02:21:00,59.6,49.4,29.99,ENE,74,3.0,4.0,69,0.00,,---,0.00,VWS V14.01,2013-05-07 07:21:00,
2013-05-07 02:27:00,59.6,49.8,29.98,East,79,5.0,5.0,70,0.00,,---,0.00,VWS V14.01,2013-05-07 07:27:00,
2013-05-07 02:32:00,59.7,49.9,29.97,ENE,76,6.0,8.0,70,0.00,,---,0.00,VWS V14.01,2013-05-07 07:32:00,
2013-05-07 02:37:00,59.9,50.1,29.97,East,91,5.0,8.0,70,0.00,,---,0.00,VWS V14.01,2013-05-07 07:37:00,
2013-05-07 02:42:00,60.2,50.0,29.97,ENE,77,4.0,8.0,69,0.00,,---,0.00,VWS V14.01,2013-05-07 07:42:00,
2013-05-07 02:47:00,60.5,49.9,29.97,ENE,73,7.0,8.0,68,0.00,,---,0.00,VWS V14.01,2013-05-07 07:47:00,
2013-05-07 02:52:00,60.7,49.7,29.96,East,82,5.0,8.0,67,0.00,,---,0.00,VWS V14.01,2013-05-07 07:52:00,
2013-05-07 02:57:00,60.9,49.5,29.95,East,87,7.0,9.0,66,0.00,,---,0.00,VWS V14.01,2013-05-07 07:57:00,
2013-05-07 03:02:00,61.0,49.6,29.95,East,97,6.0,8.0,66,0.00,,---,0.00,VWS V14.01,2013-05-07 08:02:00,
2013-05-07 03:07:00,60.9,49.5,29.95,East,92,8.0,9.0,66,0.00,,---,0.00,VWS V14.01,2013-05-07 08:07:00,
2013-05-07 03:12:00,60.7,49.3,29.94,East,100,6.0,11.0,66,0.00,,---,0.00,VWS V14.01,2013-05-07 08:12:00,
2013-05-07 03:18:00,60.5,49.1,29.94,ESE,105,10.0,11.0,66,0.00,,---,0.00,VWS V14.01,2013-05-07 08:18:00,
2013-05-07 03:23:00,60.6,49.2,29.94,ESE,103,6.0,11.0,66,0.00,,---,0.00,VWS V14.01,2013-05-07 08:23:00,
2013-05-07 03:28:00,60.4,49.0,29.94,SE,134,4.0,11.0,66,0.00,,---,0.00,VWS V14.01,2013-05-07 08:28:00,
2013-05-07 03:33:00,60.4,49.0,29.94,ESE,115,5.0,7.0,66,0.00,,---,0.00,VWS V14.01,2013-05-07 08:33:00,
2013-05-07 03:38:00,60.1,49.1,29.94,ESE,110,4.0,7.0,67,0.00,,---,0.00,VWS V14.01,2013-05-07 08:38:00,
2013-05-07 03:43:00,59.8,49.2,29.95,SE,136,6.0,8.0,68,0.00,,---,0.00,VWS V14.01,2013-05-07 08:43:00,
2013-05-07 03:48:00,59.4,49.2,29.95,SSE,152,5.0,8.0,69,0.00,,---,0.00,VWS V14.01,2013-05-07 08:48:00,
2013-05-07 03:53:00,58.9,49.2,29.95,SE,138,6.0,8.0,70,0.00,,---,0.00,VWS V14.01,2013-05-07 08:53:00,
2013-05-07 03:58:00,58.9,49.5,29.95,SE,129,6.0,9.0,71,0.00,,---,0.00,VWS V14.01,2013-05-07 08:58:00,
2013-05-07 04:04:00,58.8,49.4,29.94,SE,128,5.0,8.0,71,0.00,,---,0.00,VWS V14.01,2013-05-07 09:04:00,
2013-05-07 04:09:00,58.7,49.3,29.94,SSE,148,6.0,8.0,71,0.00,,---,0.00,VWS V14.01,2013-05-07 09:09:00,
2013-05-07 04:14:00,58.6,49.2,29.95,SE,143,9.0,10.0,71,0.00,,---,0.00,VWS V14.01,2013-05-07 09:14:00,
2013-05-07 04:19:00,58.6,49.2,29.95,SE,143,3.0,10.0,71,0.00,,---,0.00,VWS V14.01,2013-05-07 09:19:00,
2013-05-07 04:24:00,58.0,48.7,29.96,SSE,162,5.0,10.0,71,0.00,,---,0.00,VWS V14.01,2013-05-07 09:24:00,
2013-05-07 04:29:00,57.3,48.4,29.96,SSE,156,3.0,10.0,72,0.00,,---,0.00,VWS V14.01,2013-05-07 09:29:00,
2013-05-07 04:34:00,56.9,48.0,29.98,WSW,250,1.0,3.0,72,0.00,,---,0.00,VWS V14.01,2013-05-07 09:34:00,
2013-05-07 04:39:00,56.3,48.1,29.99,NW,315,2.0,3.0,74,0.00,,---,0.00,VWS V14.01,2013-05-07 09:39:00,
2013-05-07 04:44:00,55.5,48.4,30.00,WNW,293,9.0,9.0,77,0.00,,---,0.00,VWS V14.01,2013-05-07 09:44:00,
2013-05-07 04:50:00,55.7,48.6,30.01,WNW,294,3.0,9.0,77,0.00,,---,0.00,VWS V14.01,2013-05-07 09:50:00,
2013-05-07 04:55:00,56.3,48.8,30.00,West,281,2.0,9.0,76,0.00,,---,0.00,VWS V14.01,2013-05-07 09:55:00,
2013-05-07 05:00:00,56.6,48.8,30.00,NNW,342,1.0,9.0,75,0.00,,---,0.00,VWS V14.01,2013-05-07 10:00:00,
2013-05-07 05:05:00,56.8,48.6,30.00,ENE,66,2.0,2.0,74,0.00,,---,0.00,VWS V14.01,2013-05-07 10:05:00,
2013-05-07 05:10:00,57.1,48.5,29.99,East,87,2.0,3.0,73,0.00,,---,0.00,VWS V14.01,2013-05-07 10:10:00,
2013-05-07 05:15:00,57.1,48.9,29.98,East,84,5.0,5.0,74,0.00,,---,0.00,VWS V14.01,2013-05-07 10:15:00,
2013-05-07 05:20:00,57.0,48.8,29.97,SE,128,3.0,5.0,74,0.00,,---,0.00,VWS V14.01,2013-05-07 10:20:00,
2013-05-07 05:25:00,57.1,48.5,29.95,SSE,165,7.0,8.0,73,0.00,,---,0.00,VWS V14.01,2013-05-07 10:25:00,
2013-05-07 05:30:00,57.2,48.3,29.96,SE,131,3.0,8.0,72,0.00,,---,0.00,VWS V14.01,2013-05-07 10:30:00,
2013-05-07 05:36:00,57.1,48.2,29.96,ESE,107,2.0,6.0,72,0.00,,---,0.00,VWS V14.01,2013-05-07 10:36:00,
2013-05-07 05:41:00,56.9,48.3,29.96,SE,125,1.0,6.0,73,0.00,,---,0.00,VWS V14.01,2013-05-07 10:41:00,
2013-05-07 05:46:00,56.5,48.3,29.96,ESE,108,0.0,6.0,74,0.00,,---,0.00,VWS V14.01,2013-05-07 10:46:00,
2013-05-07 05:51:00,56.1,48.3,29.96,East,85,1.0,6.0,75,0.00,,---,0.00,VWS V14.01,2013-05-07 10:51:00,
2013-05-07 05:56:00,55.6,48.2,29.96,NE,37,5.0,6.0,76,0.00,,---,0.00,VWS V14.01,2013-05-07 10:56:00,
2013-05-07 06:01:00,54.9,48.5,29.96,NE,39,5.0,6.0,79,0.00,,---,0.00,VWS V14.01,2013-05-07 11:01:00,
2013-05-07 06:06:00,55.4,48.7,29.96,ENE,62,3.0,7.0,78,0.00,,---,0.00,VWS V14.01,2013-05-07 11:06:00,
2013-05-07 06:11:00,55.5,48.4,29.95,ENE,74,4.0,7.0,77,0.00,,---,0.00,VWS V14.01,2013-05-07 11:11:00,
2013-05-07 06:16:00,55.3,48.9,29.96,ENE,68,3.0,7.0,79,0.00,,---,0.00,VWS V14.01,2013-05-07 11:16:00,
2013-05-07 06:21:00,55.0,48.6,29.96,ENE,75,3.0,7.0,79,0.00,,---,0.00,VWS V14.01,2013-05-07 11:21:00,
2013-05-07 06:27:00,54.9,48.9,29.96,ENE,77,4.0,7.0,80,0.00,,---,0.00,VWS V14.01,2013-05-07 11:27:00,
2013-05-07 06:32:00,54.7,48.7,29.96,ENE,76,3.0,3.0,80,0.00,,---,0.00,VWS V14.01,2013-05-07 11:32:00,
2013-05-07 06:37:00,54.5,48.5,29.97,East,79,2.0,4.0,80,0.00,,---,0.00,VWS V14.01,2013-05-07 11:37:00,
2013-05-07 06:42:00,54.2,48.5,29.97,East,79,3.0,4.0,81,0.00,,---,0.00,VWS V14.01,2013-05-07 11:42:00,
2013-05-07 06:47:00,54.1,48.4,29.97,ENE,75,4.0,6.0,81,0.00,,---,0.00,VWS V14.01,2013-05-07 11:47:00,
2013-05-07 06:52:00,53.9,48.2,29.98,ENE,68,4.0,6.0,81,0.00,,---,0.00,VWS V14.01,2013-05-07 11:52:00,
2013-05-07 06:57:00,54.1,48.4,29.98,ENE,73,3.0,6.0,81,0.00,,---,0.00,VWS V14.01,2013-05-07 11:57:00,
2013-05-07 07:02:00,54.6,48.2,29.99,ENE,77,0.0,2.0,79,0.00,,---,0.00,VWS V14.01,2013-05-07 12:02:00,
2013-05-07 07:08:00,54.6,48.2,29.99,NW,326,2.0,2.0,79,0.00,,---,0.00,VWS V14.01,2013-05-07 12:08:00,
2013-05-07 07:13:00,54.1,48.4,29.99,WNW,294,0.0,2.0,81,0.00,,---,0.00,VWS V14.01,2013-05-07 12:13:00,
2013-05-07 07:18:00,53.9,48.5,30.00,NW,319,2.0,2.0,82,0.00,,---,0.00,VWS V14.01,2013-05-07 12:18:00,
2013-05-07 07:23:00,54.3,49.3,30.00,NW,321,1.0,3.0,83,0.00,,---,0.00,VWS V14.01,2013-05-07 12:23:00,
2013-05-07 07:28:00,55.1,49.4,30.00,NNW,330,0.0,3.0,81,0.00,,---,0.00,VWS V14.01,2013-05-07 12:28:00,
2013-05-07 07:33:00,56.1,50.0,29.99,SE,131,2.0,2.0,80,0.00,,---,0.00,VWS V14.01,2013-05-07 12:33:00,
2013-05-07 07:38:00,56.7,49.9,29.99,SE,134,3.0,5.0,78,0.00,,---,0.00,VWS V14.01,2013-05-07 12:38:00,
2013-05-07 07:43:00,57.3,50.2,29.99,East,100,3.0,5.0,77,0.00,,---,0.00,VWS V14.01,2013-05-07 12:43:00,
2013-05-07 07:48:00,57.9,50.4,29.98,SE,127,4.0,6.0,76,0.00,,---,0.00,VWS V14.01,2013-05-07 12:48:00,
2013-05-07 07:53:00,58.0,50.5,29.99,ESE,122,1.0,6.0,76,0.00,,---,0.00,VWS V14.01,2013-05-07 12:53:00,
2013-05-07 07:59:00,58.3,50.8,29.99,SSE,166,2.0,6.0,76,0.00,,---,0.00,VWS V14.01,2013-05-07 12:59:00,
2013-05-07 08:04:00,58.6,50.3,29.99,SE,124,2.0,3.0,74,0.00,,---,0.00,VWS V14.01,2013-05-07 13:04:00,
2013-05-07 08:09:00,58.8,50.5,29.99,ESE,110,1.0,4.0,74,0.00,,---,0.00,VWS V14.01,2013-05-07 13:09:00,
2013-05-07 08:14:00,59.0,50.0,29.99,ESE,112,2.0,4.0,72,0.00,,---,0.00,VWS V14.01,2013-05-07 13:14:00,
2013-05-07 08:19:00,59.1,50.1,29.99,SE,132,3.0,4.0,72,0.00,,---,0.00,VWS V14.01,2013-05-07 13:19:00,
2013-05-07 08:24:00,59.1,50.5,29.99,SE,134,1.0,4.0,73,0.00,,---,0.00,VWS V14.01,2013-05-07 13:24:00,
2013-05-07 08:29:00,59.2,50.6,29.98,East,82,4.0,6.0,73,0.00,,---,0.00,VWS V14.01,2013-05-07 13:29:00,
2013-05-07 08:34:00,59.5,50.5,29.97,East,100,3.0,6.0,72,0.00,,---,0.00,VWS V14.01,2013-05-07 13:34:00,
2013-05-07 08:39:00,60.0,50.2,29.97,SSE,152,4.0,6.0,70,0.00,,---,0.00,VWS V14.01,2013-05-07 13:39:00,
2013-05-07 08:44:00,60.7,49.3,29.97,SSE,166,7.0,10.0,66,0.00,,---,0.00,VWS V14.01,2013-05-07 13:44:00,
2013-05-07 08:50:00,62.0,49.3,29.97,SE,133,6.0,13.0,63,0.00,,---,0.00,VWS V14.01,2013-05-07 13:50:00,
2013-05-07 08:55:00,63.6,49.5,29.98,NE,46,3.0,13.0,60,0.00,,---,0.00,VWS V14.01,2013-05-07 13:55:00,
2013-05-07 09:00:00,65.3,51.5,29.99,North,11,9.0,13.0,61,0.00,,---,0.00,VWS V14.01,2013-05-07 14:00:00,
2013-05-07 09:05:00,64.9,51.6,29.99,NNE,25,6.0,10.0,62,0.00,,---,0.00,VWS V14.01,2013-05-07 14:05:00,
2013-05-07 09:10:00,64.5,49.9,29.99,NNE,21,4.0,10.0,59,0.00,,---,0.00,VWS V14.01,2013-05-07 14:10:00,
2013-05-07 09:15:00,64.4,49.8,29.99,ESE,110,4.0,10.0,59,0.00,,---,0.00,VWS V14.01,2013-05-07 14:15:00,
2013-05-07 09:20:00,64.7,50.1,29.99,SE,129,4.0,10.0,59,0.00,,---,0.00,VWS V14.01,2013-05-07 14:20:00,
2013-05-07 09:25:00,65.4,51.2,30.00,ESE,107,3.0,10.0,60,0.00,,---,0.00,VWS V14.01,2013-05-07 14:25:00,
2013-05-07 09:30:00,66.7,50.5,30.00,ENE,75,3.0,10.0,56,0.00,,---,0.00,VWS V14.01,2013-05-07 14:30:00,
2013-05-07 09:36:00,66.8,50.6,30.00,NNE,28,3.0,5.0,56,0.00,,---,0.00,VWS V14.01,2013-05-07 14:36:00,
2013-05-07 09:41:00,66.9,50.2,30.00,ENE,61,0.0,5.0,55,0.00,,---,0.00,VWS V14.01,2013-05-07 14:41:00,
2013-05-07 09:46:00,67.3,50.1,30.01,NE,48,2.0,6.0,54,0.00,,---,0.00,VWS V14.01,2013-05-07 14:46:00,
2013-05-07 09:51:00,68.5,50.2,30.01,ENE,73,2.0,6.0,52,0.00,,---,0.00,VWS V14.01,2013-05-07 14:51:00,
2013-05-07 09:56:00,69.2,49.2,30.01,ESE,121,7.0,8.0,49,0.00,,---,0.00,VWS V14.01,2013-05-07 14:56:00,
2013-05-07 10:01:00,69.7,48.6,30.01,East,86,4.0,4.0,47,0.00,,---,0.00,VWS V14.01,2013-05-07 15:01:00,
2013-05-07 10:06:00,70.6,49.4,30.01,East,96,5.0,8.0,47,0.00,,---,0.00,VWS V14.01,2013-05-07 15:06:00,
2013-05-07 10:11:00,71.3,47.7,30.01,SSE,154,2.0,10.0,43,0.00,,---,0.00,VWS V14.01,2013-05-07 15:11:00,
2013-05-07 10:16:00,71.9,48.2,30.00,ESE,105,9.0,10.0,43,0.00,,---,0.00,VWS V14.01,2013-05-07 15:16:00,
2013-05-07 10:22:00,72.0,47.0,30.00,SSE,154,6.0,11.0,41,0.00,,---,0.00,VWS V14.01,2013-05-07 15:22:00,
2013-05-07 10:27:00,72.4,48.0,30.00,SE,124,3.0,11.0,42,0.00,,---,0.00,VWS V14.01,2013-05-07 15:27:00,
2013-05-07 10:32:00,73.0,45.9,30.00,SE,136,9.0,10.0,38,0.00,,---,0.00,VWS V14.01,2013-05-07 15:32:00,
2013-05-07 10:37:00,73.3,46.9,30.00,SSE,163,8.0,12.0,39,0.00,,---,0.00,VWS V14.01,2013-05-07 15:37:00,
2013-05-07 10:42:00,73.3,45.5,30.00,ESE,106,8.0,15.0,37,0.00,,---,0.00,VWS V14.01,2013-05-07 15:42:00,
2013-05-07 10:47:00,73.5,46.4,30.00,SSE,160,10.0,15.0,38,0.00,,---,0.00,VWS V14.01,2013-05-07 15:47:00,
2013-05-07 10:52:00,74.0,46.8,30.00,SE,132,12.0,15.0,38,0.00,,---,0.00,VWS V14.01,2013-05-07 15:52:00,
2013-05-07 10:57:00,74.5,47.9,30.00,South,185,7.0,16.0,39,0.00,,---,0.00,VWS V14.01,2013-05-07 15:57:00,
2013-05-07 11:02:00,74.6,47.3,30.00,SE,139,13.0,19.0,38,0.00,,---,0.00,VWS V14.01,2013-05-07 16:02:00,
2013-05-07 11:08:00,74.3,47.1,30.00,SW,217,8.0,19.0,38,0.00,,---,0.00,VWS V14.01,2013-05-07 16:08:00,
2013-05-07 11:13:00,74.5,47.2,29.99,ESE,117,3.0,19.0,38,0.00,,---,0.00,VWS V14.01,2013-05-07 16:13:00,
2013-05-07 11:18:00,74.9,47.6,29.99,East,88,5.0,19.0,38,0.00,,---,0.00,VWS V14.01,2013-05-07 16:18:00,
2013-05-07 11:23:00,75.5,48.1,29.99,ESE,117,5.0,19.0,38,0.00,,---,0.00,VWS V14.01,2013-05-07 16:23:00,
2013-05-07 11:28:00,75.9,47.8,29.98,ESE,120,5.0,19.0,37,0.00,,---,0.00,VWS V14.01,2013-05-07 16:28:00,
2013-05-07 11:33:00,76.3,47.4,29.98,SE,139,8.0,12.0,36,0.00,,---,0.00,VWS V14.01,2013-05-07 16:33:00,
2013-05-07 11:38:00,77.1,47.4,29.98,SE,127,13.0,19.0,35,0.00,,---,0.00,VWS V14.01,2013-05-07 16:38:00,
2013-05-07 11:43:00,77.6,47.8,29.98,ESE,120,5.0,19.0,35,0.00,,---,0.00,VWS V14.01,2013-05-07 16:43:00,
2013-05-07 11:48:00,78.0,46.6,29.97,ESE,117,7.0,19.0,33,0.00,,---,0.00,VWS V14.01,2013-05-07 16:48:00,
2013-05-07 11:54:00,77.9,45.7,29.97,SSE,151,13.0,19.0,32,0.00,,---,0.00,VWS V14.01,2013-05-07 16:54:00,
2013-05-07 11:59:00,78.0,46.6,29.97,SSE,162,10.0,19.0,33,0.00,,---,0.00,VWS V14.01,2013-05-07 16:59:00,
2013-05-07 12:04:00,78.2,46.8,29.96,SE,127,8.0,14.0,33,0.00,,---,0.00,VWS V14.01,2013-05-07 17:04:00,
2013-05-07 12:09:00,78.3,46.9,29.96,SE,135,9.0,16.0,33,0.00,,---,0.00,VWS V14.01,2013-05-07 17:09:00,
2013-05-07 12:14:00,78.4,47.0,29.96,SE,133,9.0,16.0,33,0.00,,---,0.00,VWS V14.01,2013-05-07 17:14:00,
2013-05-07 12:19:00,78.4,46.1,29.96,SSE,155,6.0,16.0,32,0.00,,---,0.00,VWS V14.01,2013-05-07 17:19:00,
2013-05-07 12:24:00,78.9,46.6,29.96,SSE,150,16.0,16.0,32,0.00,,---,0.00,VWS V14.01,2013-05-07 17:24:00,
2013-05-07 12:29:00,79.1,47.6,29.96,SE,143,11.0,16.0,33,0.00,,---,0.00,VWS V14.01,2013-05-07 17:29:00,
2013-05-07 12:35:00,79.3,46.9,29.95,SE,124,13.0,16.0,32,0.00,,---,0.00,VWS V14.01,2013-05-07 17:35:00,
2013-05-07 12:40:00,79.5,47.1,29.95,ENE,77,10.0,17.0,32,0.00,,---,0.00,VWS V14.01,2013-05-07 17:40:00,
2013-05-07 12:45:00,79.9,48.3,29.94,ESE,117,5.0,17.0,33,0.00,,---,0.00,VWS V14.01,2013-05-07 17:45:00,
2013-05-07 12:50:00,80.2,46.9,29.94,East,85,15.0,19.0,31,0.00,,---,0.00,VWS V14.01,2013-05-07 17:50:00,
2013-05-07 12:55:00,80.3,46.9,29.94,SE,136,6.0,19.0,31,0.00,,---,0.00,VWS V14.01,2013-05-07 17:55:00,
2013-05-07 13:00:00,80.5,48.0,29.94,East,90,11.0,19.0,32,0.00,,---,0.00,VWS V14.01,2013-05-07 18:00:00,
2013-05-07 13:05:00,80.4,47.9,29.93,SE,124,9.0,19.0,32,0.00,,---,0.00,VWS V14.01,2013-05-07 18:05:00,
2013-05-07 13:10:00,80.6,47.2,29.93,SSW,203,9.0,19.0,31,0.00,,---,0.00,VWS V14.01,2013-05-07 18:10:00,
2013-05-07 13:15:00,80.8,48.2,29.93,SE,139,14.0,19.0,32,0.00,,---,0.00,VWS V14.01,2013-05-07 18:15:00,
2013-05-07 13:20:00,80.8,47.4,29.92,ENE,74,10.0,19.0,31,0.00,,---,0.00,VWS V14.01,2013-05-07 18:20:00,
2013-05-07 13:26:00,80.8,48.2,29.92,ESE,107,9.0,19.0,32,0.00,,---,0.00,VWS V14.01,2013-05-07 18:26:00,
2013-05-07 13:31:00,81.2,47.7,29.92,SSE,165,10.0,10.0,31,0.00,,---,0.00,VWS V14.01,2013-05-07 18:31:00,
2013-05-07 13:36:00,81.5,48.8,29.91,SE,139,10.0,21.0,32,0.00,,---,0.00,VWS V14.01,2013-05-07 18:36:00,
2013-05-07 13:41:00,81.8,48.2,29.91,SE,135,7.0,21.0,31,0.00,,---,0.00,VWS V14.01,2013-05-07 18:41:00,
2013-05-07 13:46:00,82.1,47.6,29.91,South,188,8.0,21.0,30,0.00,,---,0.00,VWS V14.01,2013-05-07 18:46:00,
2013-05-07 13:51:00,82.3,48.7,29.91,ESE,103,6.0,21.0,31,0.00,,---,0.00,VWS V14.01,2013-05-07 18:51:00,
2013-05-07 13:56:00,82.3,48.7,29.90,SE,143,13.0,21.0,31,0.00,,---,0.00,VWS V14.01,2013-05-07 18:56:00,
2013-05-07 14:01:00,82.4,49.6,29.90,East,84,10.0,11.0,32,0.00,,---,0.00,VWS V14.01,2013-05-07 19:01:00,
2013-05-07 14:06:00,83.0,49.3,29.90,ESE,104,12.0,18.0,31,0.00,,---,0.00,VWS V14.01,2013-05-07 19:06:00,
2013-05-07 14:12:00,82.7,46.3,29.89,SSE,158,15.0,18.0,28,0.00,,---,0.00,VWS V14.01,2013-05-07 19:12:00,
2013-05-07 14:17:00,83.0,47.5,29.90,SE,143,9.0,18.0,29,0.00,,---,0.00,VWS V14.01,2013-05-07 19:17:00,
2013-05-07 14:22:00,83.5,47.9,29.89,SE,125,12.0,20.0,29,0.00,,---,0.00,VWS V14.01,2013-05-07 19:22:00,
2013-05-07 14:27:00,83.6,48.0,29.89,ESE,117,15.0,20.0,29,0.00,,---,0.00,VWS V14.01,2013-05-07 19:27:00,
2013-05-07 14:32:00,83.8,49.1,29.89,SE,129,10.0,11.0,30,0.00,,---,0.00,VWS V14.01,2013-05-07 19:32:00,
2013-05-07 14:37:00,84.3,47.7,29.88,SE,142,12.0,18.0,28,0.00,,---,0.00,VWS V14.01,2013-05-07 19:37:00,
2013-05-07 14:42:00,84.1,46.5,29.88,SE,146,14.0,21.0,27,0.00,,---,0.00,VWS V14.01,2013-05-07 19:42:00,
2013-05-07 14:47:00,83.8,47.2,29.88,ESE,114,13.0,21.0,28,0.00,,---,0.00,VWS V14.01,2013-05-07 19:47:00,
2013-05-07 14:52:00,84.0,47.4,29.88,East,97,9.0,21.0,28,0.00,,---,0.00,VWS V14.01,2013-05-07 19:52:00,
2013-05-07 14:57:00,84.3,47.7,29.87,South,169,13.0,22.0,28,0.00,,---,0.00,VWS V14.01,2013-05-07 19:57:00,
2013-05-07 15:03:00,84.5,46.9,29.87,SE,134,16.0,20.0,27,0.00,,---,0.00,VWS V14.01,2013-05-07 20:03:00,
2013-05-07 15:08:00,84.2,46.6,29.87,SSE,164,11.0,23.0,27,0.00,,---,0.00,VWS V14.01,2013-05-07 20:08:00,
2013-05-07 15:13:00,85.0,47.3,29.86,SSE,151,12.0,23.0,27,0.00,,---,0.00,VWS V14.01,2013-05-07 20:13:00,
2013-05-07 15:18:00,84.8,47.1,29.86,South,177,9.0,23.0,27,0.00,,---,0.00,VWS V14.01,2013-05-07 20:18:00,
2013-05-07 15:23:00,84.6,47.9,29.86,SE,129,11.0,23.0,28,0.00,,---,0.00,VWS V14.01,2013-05-07 20:23:00,
2013-05-07 15:28:00,84.9,46.2,29.85,SSE,149,10.0,23.0,26,0.00,,---,0.00,VWS V14.01,2013-05-07 20:28:00,
2013-05-07 15:33:00,85.1,47.4,29.85,SE,124,11.0,18.0,27,0.00,,---,0.00,VWS V14.01,2013-05-07 20:33:00,
2013-05-07 15:38:00,85.0,45.3,29.85,SE,146,10.0,22.0,25,0.00,,---,0.00,VWS V14.01,2013-05-07 20:38:00,
2013-05-07 15:43:00,85.3,46.6,29.85,SSE,165,13.0,22.0,26,0.00,,---,0.00,VWS V14.01,2013-05-07 20:43:00,
2013-05-07 15:48:00,85.0,45.3,29.84,East,98,14.0,22.0,25,0.00,,---,0.00,VWS V14.01,2013-05-07 20:48:00,
2013-05-07 15:54:00,84.7,46.1,29.84,South,183,9.0,24.0,26,0.00,,---,0.00,VWS V14.01,2013-05-07 20:54:00,
2013-05-07 15:59:00,85.0,45.3,29.84,ESE,121,13.0,24.0,25,0.00,,---,0.00,VWS V14.01,2013-05-07 20:59:00,
2013-05-07 16:04:00,85.3,46.6,29.84,East,82,10.0,18.0,26,0.00,,---,0.00,VWS V14.01,2013-05-07 21:04:00,
2013-05-07 16:09:00,85.6,44.7,29.83,SE,125,12.0,19.0,24,0.00,,---,0.00,VWS V14.01,2013-05-07 21:09:00,
2013-05-07 16:14:00,85.9,47.1,29.83,ESE,117,13.0,19.0,26,0.00,,---,0.00,VWS V14.01,2013-05-07 21:14:00,
2013-05-07 16:19:00,86.1,46.2,29.83,SE,129,14.0,19.0,25,0.00,,---,0.00,VWS V14.01,2013-05-07 21:19:00,
2013-05-07 16:24:00,85.6,45.8,29.82,SE,143,12.0,22.0,25,0.00,,---,0.00,VWS V14.01,2013-05-07 21:24:00,
2013-05-07 16:29:00,85.7,45.9,29.82,SSE,149,17.0,22.0,25,0.00,,---,0.00,VWS V14.01,2013-05-07 21:29:00,
2013-05-07 16:35:00,85.5,45.7,29.82,SE,139,13.0,18.0,25,0.00,,---,0.00,VWS V14.01,2013-05-07 21:35:00,
2013-05-07 16:40:00,85.7,45.9,29.82,SSE,159,11.0,24.0,25,0.00,,---,0.00,VWS V14.01,2013-05-07 21:40:00,
2013-05-07 16:45:00,85.7,46.9,29.82,SSE,155,12.0,24.0,26,0.00,,---,0.00,VWS V14.01,2013-05-07 21:45:00,
2013-05-07 16:50:00,85.9,46.0,29.82,SE,127,9.0,24.0,25,0.00,,---,0.00,VWS V14.01,2013-05-07 21:50:00,
2013-05-07 16:55:00,86.1,46.2,29.81,SE,127,7.0,24.0,25,0.00,,---,0.00,VWS V14.01,2013-05-07 21:55:00,
2013-05-07 17:00:00,86.1,46.2,29.81,SE,127,10.0,24.0,25,0.00,,---,0.00,VWS V14.01,2013-05-07 22:00:00,
2013-05-07 17:05:00,85.8,47.0,29.81,East,96,12.0,22.0,26,0.00,,---,0.00,VWS V14.01,2013-05-07 22:05:00,
2013-05-07 17:10:00,85.7,45.9,29.81,SSE,153,13.0,22.0,25,0.00,,---,0.00,VWS V14.01,2013-05-07 22:10:00,
2013-05-07 17:15:00,85.8,46.0,29.80,SE,143,12.0,22.0,25,0.00,,---,0.00,VWS V14.01,2013-05-07 22:15:00,
2013-05-07 17:20:00,85.7,46.9,29.80,ESE,115,9.0,22.0,26,0.00,,---,0.00,VWS V14.01,2013-05-07 22:20:00,
2013-05-07 17:26:00,86.6,46.6,29.80,SE,146,12.0,22.0,25,0.00,,---,0.00,VWS V14.01,2013-05-07 22:26:00,
2013-05-07 17:31:00,86.3,46.4,29.80,SE,139,13.0,16.0,25,0.00,,---,0.00,VWS V14.01,2013-05-07 22:31:00,
2013-05-07 17:36:00,86.2,46.3,29.80,SSE,156,11.0,17.0,25,0.00,,---,0.00,VWS V14.01,2013-05-07 22:36:00,
2013-05-07 17:41:00,85.9,46.0,29.80,SE,127,10.0,21.0,25,0.00,,---,0.00,VWS V14.01,2013-05-07 22:41:00,
2013-05-07 17:46:00,85.9,46.0,29.80,SE,135,16.0,25.0,25,0.00,,---,0.00,VWS V14.01,2013-05-07 22:46:00,
2013-05-07 17:51:00,85.9,46.0,29.79,SSE,153,13.0,25.0,25,0.00,,---,0.00,VWS V14.01,2013-05-07 22:51:00,
2013-05-07 17:56:00,86.1,45.1,29.79,SSE,152,19.0,25.0,24,0.00,,---,0.00,VWS V14.01,2013-05-07 22:56:00,
2013-05-07 18:01:00,85.9,46.0,29.79,SSE,152,16.0,23.0,25,0.00,,---,0.00,VWS V14.01,2013-05-07 23:01:00,
2013-05-07 18:06:00,86.2,46.3,29.79,SSE,156,12.0,23.0,25,0.00,,---,0.00,VWS V14.01,2013-05-07 23:06:00,
2013-05-07 18:11:00,86.2,46.3,29.79,SE,136,8.0,23.0,25,0.00,,---,0.00,VWS V14.01,2013-05-07 23:11:00,
2013-05-07 18:17:00,86.1,46.2,29.78,ESE,117,11.0,23.0,25,0.00,,---,0.00,VWS V14.01,2013-05-07 23:17:00,
2013-05-07 18:22:00,86.1,46.2,29.78,SE,142,9.0,23.0,25,0.00,,---,0.00,VWS V14.01,2013-05-07 23:22:00,
2013-05-07 18:27:00,86.1,46.2,29.78,SSE,165,8.0,23.0,25,0.00,,---,0.00,VWS V14.01,2013-05-07 23:27:00,
2013-05-07 18:32:00,86.0,46.1,29.78,SE,146,7.0,15.0,25,0.00,,---,0.00,VWS V14.01,2013-05-07 23:32:00,
2013-05-07 18:37:00,86.1,46.2,29.78,SE,127,10.0,17.0,25,0.00,,---,0.00,VWS V14.01,2013-05-07 23:37:00,
2013-05-07 18:42:00,85.8,46.0,29.78,SE,124,6.0,17.0,25,0.00,,---,0.00,VWS V14.01,2013-05-07 23:42:00,
2013-05-07 18:47:00,85.6,45.8,29.78,SSE,147,7.0,21.0,25,0.00,,---,0.00,VWS V14.01,2013-05-07 23:47:00,
2013-05-07 18:52:00,85.6,46.8,29.78,SE,137,16.0,21.0,26,0.00,,---,0.00,VWS V14.01,2013-05-07 23:52:00,
2013-05-07 18:57:00,85.5,46.7,29.78,SE,131,12.0,21.0,26,0.00,,---,0.00,VWS V14.01,2013-05-07 23:57:00,
2013-05-07 19:03:00,85.1,46.4,29.78,SE,138,13.0,13.0,26,0.00,,---,0.00,VWS V14.01,2013-05-08 00:03:00,
2013-05-07 19:08:00,85.0,47.3,29.77,SE,141,9.0,18.0,27,0.00,,---,0.00,VWS V14.01,2013-05-08 00:08:00,
2013-05-07 19:13:00,84.9,47.2,29.77,SE,136,9.0,19.0,27,0.00,,---,0.00,VWS V14.01,2013-05-08 00:13:00,
2013-05-07 19:18:00,84.8,47.1,29.77,SE,134,11.0,19.0,27,0.00,,---,0.00,VWS V14.01,2013-05-08 00:18:00,
2013-05-07 19:23:00,84.7,47.1,29.77,ESE,117,11.0,19.0,27,0.00,,---,0.00,VWS V14.01,2013-05-08 00:23:00,
2013-05-07 19:28:00,84.4,46.8,29.77,SE,127,13.0,19.0,27,0.00,,---,0.00,VWS V14.01,2013-05-08 00:28:00,
2013-05-07 19:33:00,84.0,46.5,29.77,ESE,119,16.0,19.0,27,0.00,,---,0.00,VWS V14.01,2013-05-08 00:33:00,
2013-05-07 19:38:00,83.3,46.8,29.77,SE,146,15.0,19.0,28,0.00,,---,0.00,VWS V14.01,2013-05-08 00:38:00,
2013-05-07 19:43:00,82.8,46.4,29.77,SE,134,6.0,20.0,28,0.00,,---,0.00,VWS V14.01,2013-05-08 00:43:00,
2013-05-07 19:49:00,82.1,46.7,29.77,ESE,117,9.0,20.0,29,0.00,,---,0.00,VWS V14.01,2013-05-08 00:49:00,
2013-05-07 19:54:00,81.7,46.4,29.77,SE,135,10.0,20.0,29,0.00,,---,0.00,VWS V14.01,2013-05-08 00:54:00,
2013-05-07 19:59:00,81.2,46.8,29.77,ESE,111,6.0,20.0,30,0.00,,---,0.00,VWS V14.01,2013-05-08 00:59:00,
2013-05-07 20:04:00,80.9,47.5,29.77,SE,127,9.0,10.0,31,0.00,,---,0.00,VWS V14.01,2013-05-08 01:04:00,
2013-05-07 20:09:00,80.5,47.1,29.77,SE,124,6.0,12.0,31,0.00,,---,0.00,VWS V14.01,2013-05-08 01:09:00,
2013-05-07 20:14:00,79.9,47.4,29.77,ESE,104,4.0,12.0,32,0.00,,---,0.00,VWS V14.01,2013-05-08 01:14:00,
2013-05-07 20:19:00,79.5,47.1,29.77,SE,124,5.0,12.0,32,0.00,,---,0.00,VWS V14.01,2013-05-08 01:19:00,
2013-05-07 20:24:00,79.3,47.7,29.78,ESE,117,7.0,12.0,33,0.00,,---,0.00,VWS V14.01,2013-05-08 01:24:00,
2013-05-07 20:29:00,78.8,47.3,29.77,ESE,120,4.0,12.0,33,0.00,,---,0.00,VWS V14.01,2013-05-08 01:29:00,
2013-05-07 20:35:00,78.2,47.6,29.78,East,98,5.0,9.0,34,0.00,,---,0.00,VWS V14.01,2013-05-08 01:35:00,
2013-05-07 20:40:00,77.9,47.3,29.78,East,95,6.0,9.0,34,0.00,,---,0.00,VWS V14.01,2013-05-08 01:40:00,
2013-05-07 20:45:00,77.6,47.8,29.78,ESE,103,5.0,10.0,35,0.00,,---,0.00,VWS V14.01,2013-05-08 01:45:00,
2013-05-07 20:50:00,77.4,47.6,29.78,ESE,121,5.0,10.0,35,0.00,,---,0.00,VWS V14.01,2013-05-08 01:50:00,
2013-05-07 20:55:00,77.1,47.4,29.78,SSE,156,9.0,10.0,35,0.00,,---,0.00,VWS V14.01,2013-05-08 01:55:00,
2013-05-07 21:00:00,76.7,47.8,29.78,SE,136,5.0,10.0,36,0.00,,---,0.00,VWS V14.01,2013-05-08 02:00:00,
2013-05-07 21:05:00,76.6,47.7,29.78,East,98,6.0,9.0,36,0.00,,---,0.00,VWS V14.01,2013-05-08 02:05:00,
2013-05-07 21:10:00,76.3,48.1,29.78,SE,134,8.0,10.0,37,0.00,,---,0.00,VWS V14.01,2013-05-08 02:10:00,
2013-05-07 21:15:00,76.2,48.0,29.78,East,101,5.0,11.0,37,0.00,,---,0.00,VWS V14.01,2013-05-08 02:15:00,
2013-05-07 21:21:00,76.0,47.9,29.79,ESE,115,4.0,11.0,37,0.00,,---,0.00,VWS V14.01,2013-05-08 02:21:00,
2013-05-07 21:26:00,75.7,48.3,29.79,ESE,110,4.0,11.0,38,0.00,,---,0.00,VWS V14.01,2013-05-08 02:26:00,
2013-05-07 21:31:00,75.1,47.8,29.79,East,101,6.0,6.0,38,0.00,,---,0.00,VWS V14.01,2013-05-08 02:31:00,
2013-05-07 21:36:00,74.9,47.6,29.79,ESE,105,7.0,11.0,38,0.00,,---,0.00,VWS V14.01,2013-05-08 02:36:00,
2013-05-07 21:41:00,74.9,48.3,29.79,ESE,115,5.0,11.0,39,0.00,,---,0.00,VWS V14.01,2013-05-08 02:41:00,
2013-05-07 21:46:00,74.7,48.1,29.79,ESE,117,7.0,11.0,39,0.00,,---,0.00,VWS V14.01,2013-05-08 02:46:00,
2013-05-07 21:51:00,74.5,47.9,29.80,ESE,109,7.0,11.0,39,0.00,,---,0.00,VWS V14.01,2013-05-08 02:51:00,
2013-05-07 21:56:00,74.3,48.4,29.79,ESE,104,6.0,11.0,40,0.00,,---,0.00,VWS V14.01,2013-05-08 02:56:00,
2013-05-07 22:01:00,74.0,48.2,29.80,East,91,6.0,13.0,40,0.00,,---,0.00,VWS V14.01,2013-05-08 03:01:00,
2013-05-07 22:07:00,73.8,48.0,29.79,SE,124,7.0,13.0,40,0.00,,---,0.00,VWS V14.01,2013-05-08 03:07:00,
2013-05-07 22:12:00,73.9,48.1,29.80,ESE,117,11.0,13.0,40,0.00,,---,0.00,VWS V14.01,2013-05-08 03:12:00,
2013-05-07 22:17:00,73.9,48.1,29.80,ESE,117,5.0,13.0,40,0.00,,---,0.00,VWS V14.01,2013-05-08 03:17:00,
2013-05-07 22:22:00,73.8,48.0,29.80,ESE,107,11.0,13.0,40,0.00,,---,0.00,VWS V14.01,2013-05-08 03:22:00,
2013-05-07 22:27:00,73.7,48.6,29.80,ESE,117,9.0,13.0,41,0.00,,---,0.00,VWS V14.01,2013-05-08 03:27:00,
2013-05-07 22:32:00,73.6,48.5,29.80,ESE,110,9.0,13.0,41,0.00,,---,0.00,VWS V14.01,2013-05-08 03:32:00,
2013-05-07 22:37:00,73.5,48.4,29.80,ESE,122,6.0,13.0,41,0.00,,---,0.00,VWS V14.01,2013-05-08 03:37:00,
2013-05-07 22:42:00,73.5,48.4,29.80,ESE,107,11.0,13.0,41,0.00,,---,0.00,VWS V14.01,2013-05-08 03:42:00,
2013-05-07 22:47:00,73.4,48.3,29.80,SE,124,10.0,13.0,41,0.00,,---,0.00,VWS V14.01,2013-05-08 03:47:00,
2013-05-07 22:53:00,73.3,48.2,29.80,East,101,7.0,13.0,41,0.00,,---,0.00,VWS V14.01,2013-05-08 03:53:00,
2013-05-07 22:58:00,73.1,48.7,29.80,East,83,7.0,13.0,42,0.00,,---,0.00,VWS V14.01,2013-05-08 03:58:00,
2013-05-07 23:01:00,73.0,48.6,29.80,ESE,121,7.0,9.0,42,0.00,,---,0.00,VWS V14.01,2013-05-08 04:01:00,
2013-05-07 23:02:00,73.0,48.6,29.80,ESE,120,6.0,12.0,42,0.00,,---,0.00,VWS V14.01,2013-05-08 04:02:00,
2013-05-07 23:03:00,73.0,48.6,29.80,ESE,104,9.0,12.0,42,0.00,,---,0.00,VWS V14.01,2013-05-08 04:03:00,
2013-05-07 23:08:00,72.8,48.4,29.80,East,96,5.0,12.0,42,0.00,,---,0.00,VWS V14.01,2013-05-08 04:08:00,
2013-05-07 23:13:00,72.6,48.2,29.80,East,98,6.0,12.0,42,0.00,,---,0.00,VWS V14.01,2013-05-08 04:13:00,
2013-05-07 23:18:00,72.6,48.2,29.80,East,99,8.0,14.0,42,0.00,,---,0.00,VWS V14.01,2013-05-08 04:18:00,
2013-05-07 23:23:00,72.5,48.8,29.80,East,84,6.0,14.0,43,0.00,,---,0.00,VWS V14.01,2013-05-08 04:23:00,
2013-05-07 23:28:00,72.2,48.5,29.80,ESE,120,11.0,14.0,43,0.00,,---,0.00,VWS V14.01,2013-05-08 04:28:00,
2013-05-07 23:33:00,72.0,48.3,29.80,East,94,13.0,14.0,43,0.00,,---,0.00,VWS V14.01,2013-05-08 04:33:00,
2013-05-07 23:38:00,72.0,48.3,29.80,SE,145,10.0,18.0,43,0.00,,---,0.00,VWS V14.01,2013-05-08 04:38:00,
2013-05-07 23:43:00,71.9,48.2,29.80,SSE,161,9.0,18.0,43,0.00,,---,0.00,VWS V14.01,2013-05-08 04:43:00,
2013-05-07 23:48:00,72.0,48.3,29.79,SE,124,9.0,18.0,43,0.00,,---,0.00,VWS V14.01,2013-05-08 04:48:00,
2013-05-07 23:54:00,71.8,48.1,29.79,ESE,120,11.0,18.0,43,0.00,,---,0.00,VWS V14.01,2013-05-08 04:54:00,
2013-05-07 23:59:00,71.8,48.1,29.79,SE,127,6.0,20.0,43,0.00,,---,0.00,VWS V14.01,2013-05-08 04:59:00,